Regional Weather Roundup
Issued by NWS Charleston, WV

Home | Current Version | Previous Version | Text Only | Print | Product List | Glossary On
Versions: 1 2 3 4 5 6 7 8 9 10 11 12 13 14 15 16 17 18 19 20 21 22 23 24 25 26 27 28
000
ASUS41 KRLX 061710
RWRRLX
West Virginia Regional Weather Roundup
National Weather Service Charleston WV
100 PM EDT FRI MAY 06 2016

Note: "fair" indicates few or no clouds below 12,000 feet with no
significant weather and/or obstructions to visibility.

WVZ003-061800-
Northern Panhandle of West Virginia

CITY           SKY/WX    TMP DP  RH WIND       PRES   REMARKS
WHEELING         N/A     65  37  35 NW23G31   29.80F
$$

WVZ009-061800-
Northwest West Virginia

CITY           SKY/WX    TMP DP  RH WIND       PRES   REMARKS
PARKERSBURG      N/A     68  41  37 NW12G24   29.87F
$$

WVZ006-061800-
Western West Virginia

CITY           SKY/WX    TMP DP  RH WIND       PRES   REMARKS
HUNTINGTON     PTSUNNY   65  44  46 NW12G20   29.90F
$$

WVZ015-061800-
West Central West Virginia

CITY           SKY/WX    TMP DP  RH WIND       PRES   REMARKS
CHARLESTON     PTSUNNY   65  40  39 NW12G26   29.85F
$$

WVZ022-031-061800-
North Central West Virginia

CITY           SKY/WX    TMP DP  RH WIND       PRES   REMARKS
CLARKSBURG       N/A     64  41  42 N16G24    29.78F
MORGANTOWN       N/A     64  37  36 NW15G23   29.78F
$$

WVZ025-035-042-045-061800-
Southern West Virginia

CITY           SKY/WX    TMP DP  RH WIND       PRES   REMARKS
BECKLEY        PTSUNNY   55  40  56 N15       29.85F
LOGAN          NOT AVBL
BLUEFIELD      PTSUNNY   51  38  60 N15G21    29.86F
LEWISBURG      CLOUDY    50  41  69 N14       29.82S
$$

WVZ047-061800-
Northern Mountains of West Virginia

CITY           SKY/WX    TMP DP  RH WIND       PRES   REMARKS
ELKINS         PTSUNNY   56  44  64 W3        29.80F
$$

WVZ052-061800-
Eastern Panhandle of West Virginia

CITY           SKY/WX    TMP DP  RH WIND       PRES   REMARKS
MARTINSBURG    LGT RAIN  53  49  86 NW10      29.71S FOG
PETERSBURG     DRIZZLE   59  45  58 NW7G16    29.74F
$$




USA.gov is the U.S. government's official web portal to all federal, state and local government web resources and services.